Skip Page Navigation
NASA JPL Caltech
NASA Logo - Jet Propulsion Laboratory + View the NASA Portal
+ Center for Near-Earth Object Studies
JPL Home Earth Solar System Stars & Galaxies Technology
JPL Solar System Dynamics
BODIES ORBITS EPHEMERIDES TOOLS PHYSICAL DATA DISCOVERY FAQ SITE MAP
JPL Small-Body Database Browser
Search: [ help ]  
577 Rhea (A905 UR)
Classification: Main-belt Asteroid          SPK-ID: 2000577
Ephemeris | Orbit Diagram | Orbital Elements | Mission Design | Physical Parameters | Discovery Circumstances | Close-Approach Data ]

[ show orbit diagram ]
Orbital Elements at Epoch 2459000.5 (2020-May-31.0) TDB
Reference: JPL 35 (heliocentric ecliptic J2000)
 Element Value Uncertainty (1-sigma)   Units 
e .1558316072768366 3.6056e-08  
a 3.113882688282056 1.2558e-08 au
q 2.628641344095546 1.1436e-07 au
i 5.299284259915289 4.122e-06 deg
node 328.4906320161747 4.0179e-05 deg
peri 330.1696709125086 4.1956e-05 deg
M 357.3815457208259 1.2119e-05 deg
tp 2459015.098031341518
(2020-Jun-14.59803134)
6.7572e-05 TDB
period 2007.020448951339
5.49
1.2141e-05
3.324e-08
d
yr
n .179370369737936 1.0851e-09 deg/d
Q 3.599124032468566 1.4515e-08 au
  Orbit Determination Parameters
   # obs. used (total)      3268  
   data-arc span      42013 days (115.03 yr)  
   first obs. used      1905-10-20  
   last obs. used      2020-10-29  
   planetary ephem.      DE431  
   SB-pert. ephem.      SB431-N16  
   condition code      0  
   norm. resid. RMS      .428  
   source      ORB  
   producer      Otto Matic  
   solution date      2020-Nov-13 04:28:05  

Additional Information
 Earth MOID = 1.61469 au 
 Jupiter MOID = 1.64462 au 
 T_jup = 3.193 
[ show covariance matrix ]

Ephemeris | Orbit Diagram | Orbital Elements | Mission Design | Physical Parameters | Discovery Circumstances | Close-Approach Data ]

Physical Parameter Table
Parameter Symbol Value Units Sigma Reference Notes
absolute magnitude H 9.4   n/a MPO350801  
diameter diameter 38.234 km 1.701 urn:nasa:pds:neowise_diameters_albedos::2.0[mainbelt] (http://adsabs.harvard.edu/abs/2012ApJ...759L...8M)  
rotation period rot_per 12.249 h n/a LCDB (Rev. 2019-August); Warner et al., 2009 Published Reference List:
[Behrend, R. (2007) Observatoire de Geneve web site, http://obswww.unige.ch/~behrend/page_cou.html]
[Alkema, M.S. (2013) Minor Planet Bull. 40, 133-137.]
[Waszczak, A.; Chang, C.-K.; Ofeck, E.O.; Laher, F.; et al. (2015) Astron. J. 150, A75.]
geometric albedo albedo 0.230   0.036 urn:nasa:pds:neowise_diameters_albedos::2.0[mainbelt] (http://adsabs.harvard.edu/abs/2012ApJ...759L...8M)  

577 Rhea (A905 UR)          Discovered 1905-Oct-20 by Wolf, M. at Heidelberg
Reference: DISCOVERY.DBLast Updated: 2003-08-29

[ show close-approach data ]
Alternate Designations
 A905 UR = 1943 QD = 1949 SF1 = 1952 DC = A912 AC 
Ephemeris | Orbit Diagram | Orbital Elements | Mission Design | Physical Parameters | Discovery Circumstances | Close-Approach Data ]
ABOUT SSD CREDITS/AWARDS PRIVACY/COPYRIGHT GLOSSARY LINKS
FirstGov 2020-Nov-26 18:25 UT
(server date/time)  
NASA Home Page
Site Manager:   Ryan S. Park
Webmaster  Alan B. Chamberlin